Location: C�mpuri de-Sus
(45.9500°N, 22.5500°E)
Time: 19:53:23
(UTC+00:00)

Cosmos 839 Rocket - Pass Details

Date: 08 December 2023
Orbit: 960 x 2093 km, 65.9° (Epoch: 20 February)

Event Time Altitude Azimuth Distance (km) Brightness Sun altitude
Exits shadow 04:45:04 14° 295° (WNW) 4,229 6.6 -12.2°
Maximum altitude 04:53:29 29° 346° (NNW) 3,158 6.3 -10.8°
Drops below altitude 10° 05:02:38 10° 43° (NE) 4,128 7.5 -9.4°
Sets 05:06:19 0° 55° (NE) 4,959 8.1 -8.8°
